Terminal Aerodrome Forecast
Issued by NWS Sterling, VA

Current Version | Previous Version | Graphics & Text | Print | Product List | Glossary On
Versions: 1 2 3 4 5 6 7 8 9 10 11 12 13 14 15 16 17 18 19 20 21 22 23 24 25 26
000
FTUS41 KLWX 161100 RRA
TAFMRB
TAF
KMRB 161144Z 1612/1712 VRB05KT 2SM BR OVC004
      TEMPO 1612/1614 1SM BR
     FM161400 VRB03KT 5SM -SHRA OVC040
     FM162000 18006KT P6SM OVC025
     FM170000 23004KT P6SM SCT050=

USA.gov is the U.S. government's official web portal to all federal, state and local government web resources and services.